Погода в Гладковичах

Украина / Житомирская область     51°20′17″N   28°53′50″E
темп.,
°C
ветер,
м/с
пор.,
м/с
влажн.,
%
обл.,
%
осадки,
мм/ч
давл.,
гПа
погр.,
м
18 мая, вт
вт1800:00+13вюв119397 0.0 100310
03:00+13ююв229681 0.6 100239
06:00+12ююз259476 0.0 1001109
09:00+16юв348068 0.0 1002394
12:00+19вюв4570100 1.4 10011170
15:00+19вюв5669100 4.3 10001132
18:00+17вюв378283 3.0 999263
21:00+14в2288100 5.3 99823
19 мая, ср
ср1900:00+13св3493100 0.5 99871
03:00+12с2497100 2.3 99995
06:00+12ссз3798100 2.3 1000438
09:00+11ссз5997100 2.9 1001517
12:00+11сз6995100 0.4 1003610
15:00+10сз51096100 5.1 1005678
18:00+10сз61494100 3.9 1006774
21:00+10сз41194100 5.2 1008594
20 мая, чт
чт2000:00+9зсз499697 0.0 1008390
03:00+8зсз51295100 0.0 1008360
06:00+8зсз4109425 0.0 1009278
09:00+12сз5882100 0.0 1009513
12:00+16сз466245 0.1 10091499
15:00+17ссз455594 0.4 10101735
18:00+16с3667100 0.1 1011567
21:00+11ссв2281100 0.1 101220
21 мая, пт
пт2100:00+10ссв2385100 0.0 101438
03:00+9св2290100 0.0 101427
06:00+9ссв3590100 0.0 1016102
09:00+14св357196 0.0 1016445
12:00+18св4552100 0.0 10161652
15:00+19св3446100 0.0 10152024
18:00+17в3462100 0.2 1015691
21:00+12в22845 0.8 101721
22 мая, сб
сб2200:00+10в11890 0.0 101710
03:00+9с01920 0.0 101710
06:00+9в11920 0.0 101714
09:00+15всв11750 0.0 1016355
12:00+19всв23535 0.0 10151267
15:00+21вюв334815 0.0 10141882
18:00+18вюв466975 0.0 1013495
21:00+14вюв35880 0.1 101378